Weather Roundup
Issued by NWS

Home | Current Version | Previous Version | Text Only | Print | Product List | Glossary On
Versions: 1 2 3 4 5 6 7 8 9 10 11 12 13 14 15 16 17 18 19 20 21 22 23 24 25 26 27 28 29 30 31 32 33 34 35 36 37 38 39 40 41 42 43 44 45 46 47 48 49 50
000
NZUS93 KARX 201559
HRRWXR

CURRENT HOURLY OBSERVATIONS ACROSS
MUCH OF THE UPPER MISSISSIPPI VALLEY
NATIONAL WEATHER SERVICE LA CROSSE WI
1000 AM CST TUE FEB 20 2018


...SOUTHEAST MINNESOTA...


CITY           SKY/WX    TMP DP  RH WIND       PRES   REMARKS
ROCHESTER      CLOUDY    21  19  92 W14       29.85R WCI   8
ROCHESTER/MAYO CLOUDY    22  20  93 W10       29.87R WCI  11
WINONA         CLOUDY    27  27 100 W6        29.86R WCI  20
AUSTIN         CLOUDY    21  18  86 W8        29.88R FOG     WCI  12
ALBERT LEA     CLOUDY    18  16  93 NW5       29.89S FOG     WCI  11
DODGE CENTER   CLOUDY    19  18  93 W7        29.86S FOG     WCI  10
PRESTON        CLOUDY    23  21  93 W6        29.85R WCI  16
OWATONNA       CLOUDY    19  18  93 CALM      29.88S FOG
FARIBAULT      CLOUDY    19  16  86 W7        29.89F FOG     WCI  10
$$

...ELSEWHERE IN MINNESOTA...


CITY           SKY/WX    TMP DP  RH WIND       PRES   REMARKS
MINNEAPOLIS    FLURRIES  18  17  96 NW10      29.90F WCI   6
INTNL FALLS    SNOW       5   0  79 N9        29.93F VSB 1/2 WCI  -9
DULUTH         FRZ DRZL   8   4  83 NW12      29.85R WCI  -7
RED WING       CLOUDY    21  18  86 W8        29.88R FOG     WCI  12
REDWOOD FALLS  FLURRIES  13   8  81 NW16G28   29.99R WCI  -3
MANKATO        CLOUDY    16  13  88 NW12      29.93R WCI   3
WORTHINGTON    CLOUDY    12   6  77 NW23      29.97F WCI  -7
FAIRMONT       FLURRIES  14  10  84 NW17      29.98R WCI  -3
$$

...SOUTHWEST WISCONSIN...


CITY           SKY/WX    TMP DP  RH WIND       PRES   REMARKS
LA CROSSE      CLOUDY    32  30  92 NW13      29.84R FOG     WCI  22
PRAIRIE DU CHI LGT RAIN  34  33  96 W7        29.85R WCI  28
BOSCOBEL       LGT RAIN  36  35  96 SW7       29.84R FOG     WCI  30
LONE ROCK      LGT RAIN  35  35 100 CALM      29.82R FOG
PLATTEVILLE    CLOUDY    35  35 100 SW6       29.83R WCI  30
FORT MC COY    CLOUDY    31  30  98 CALM      29.82R
CAMP DOUGLAS   CLOUDY    32  32 100 CALM      29.80S
MAUSTON-NEW LI MIX PCPN  33  32  98 CALM      29.80R
VIROQUA        CLOUDY    32  32 100 SW6       29.79F WCI  26
WIS DELLS      CLOUDY    32  32 100 CALM      29.80F FOG
$$

...ELSEWHERE IN WISCONSIN...


CITY           SKY/WX    TMP DP  RH WIND       PRES   REMARKS
MILWAUKEE      FOG       42  41  96 SE7       29.84S VSB 1
MADISON        CLOUDY    37  36  96 CALM      29.82S
GREEN BAY      CLOUDY    32  30  92 CALM      29.79F
EAU CLAIRE     NOT AVBL
BLACK RVR FLS  CLOUDY    31  31  99 CALM      29.81F
MEDFORD        CLOUDY    27  26  99 SW3       29.76R FOG
WAUSAU         CLOUDY    30  29  96 SW5       29.75R FOG     WCI  25
WIS RAPIDS     CLOUDY    32  29  88 SW7       29.80R WCI  26
MARSHFIELD     CLOUDY    30  29  96 W7        29.77R WCI  23
RICE LAKE      CLOUDY    21  18  91 NW5       29.83R FOG     WCI  14
$$

...NORTHEAST IOWA...


CITY           SKY/WX    TMP DP  RH WIND       PRES   REMARKS
WATERLOO       CLOUDY    28  26  92 W10       29.91R WCI  19
DUBUQUE        RAIN      33  31  92 W8        29.85R FOG     WCI  26
DECORAH        CLOUDY    30  30 100 VRB7G14   29.82F WCI  23
MASON CITY     CLOUDY    20  17  88 NW16      29.93R WCI   6
CHARLES CITY   CLOUDY    27  27 100 W12       29.90R WCI  16
OELWEIN        CLOUDY    32  32 100 NW15      29.87S WCI  22
$$

...ELSEWHERE IN IOWA...


CITY           SKY/WX    TMP DP  RH WIND       PRES   REMARKS
DES MOINES     FLURRIES  26  22  84 NW12      29.98R WCI  16
IOWA CITY      LGT RAIN  35  32  88 NW5       29.89R WCI  31
FORT DODGE     CLOUDY    19  15  84 W13G18    29.99R WCI   6
MARSHALLTOWN   MIX PCPN  25  23  92 W17       29.97R WCI  12
CEDAR RAPIDS   LGT RAIN  33  32  96 NW9       29.85R WCI  25
$$

...NORTHERN ILLINOIS...


CITY           SKY/WX    TMP DP  RH WIND       PRES   REMARKS
CHICAGO-OHARE  CLOUDY    63  58  83 SW20G25   29.84S
CHICAGO-MIDWAY CLOUDY    63  60  90 S14G22    29.85F
MOLINE         CLOUDY    38  36  92 W16       29.87R FOG     WCI  29
ROCKFORD       CLOUDY    41  41 100 E3        29.83F FOG
PEORIA         PTSUNNY   65  59  81 S20G32    29.83F
$$

NOTE: "FAIR" INDICATES FEW OR NO CLOUDS BELOW 12,000 FEET WITH NO
SIGNIFICANT WEATHER AND/OR OBSTRUCTIONS TO VISIBILITY. WIND
SPEEDS ARE IN MILES-PER-HOUR.




USA.gov is the U.S. government's official web portal to all federal, state and local government web resources and services.